AIM

Last updated on Wed Apr 24 2024 00:02:32 GMT+0000 (Coordinated Universal Time)

1 31304U 07015A 24114.49479113 .00104870 00000+0 14659-2 0 9990 2 31304 97.9003 84.2546 0005136 127.8999 232.2720 15.56467468934590
UTC large
Height (km)
Speed (km/s)
/
Latitude / Longitude
Inclination (degrees)
Orbital Period (minutes)
Azimuth
Elevation
Range (km)
Doppler Factor

Next 0 passes for location: London (51.5072 / 0.1276)

Sorry there are no passes over London.